Regional Weather Roundup
Issued by NWS

Home | Current Version | Previous Version | Text Only | Print | Product List | Glossary On
Versions: 1 2 3 4 5 6 7 8 9 10 11 12 13 14 15 16 17 18 19 20 21 22 23 24 25 26 27 28 29 30 31 32 33 34 35 36 37 38 39 40 41 42 43 44 45 46 47 48 49 50
000
ASUS42 KFFC 031610
RWRGA
WEATHER ROUNDUP FOR GEORGIA
NATIONAL WEATHER SERVICE PEACHTREE CITY GA
1100 AM EST SAT DEC 03 2016

NOTE: "FAIR" INDICATES FEW OR NO CLOUDS BELOW 12,000 FEET WITH NO
SIGNIFICANT WEATHER AND/OR OBSTRUCTIONS TO VISIBILITY.

* = USE WITH CAUTION. THE STATIONS MARKED WITH AN ASTERISK MAY NOT
REPORT WEATHER SUCH AS PRECIPITATION, FOG, OR THUNDER AND ARE NOT
QUALITY CONTROLLED BY NWS.

THE REMARK "TC" DENOTES TEMPERATURE READING IN DEGREES CELSIUS.

GAZ001>058-031700-
NORTH GEORGIA

CITY           SKY/WX    TMP DP  RH WIND       PRES   REMARKS
ATLANTA        CLOUDY    50  32  50 NW5       30.27S
ATHENS         MOSUNNY   52  32  46 E6        30.27F
CHAMBLEE       CLOUDY    50  30  46 CALM      30.27S
PEACHTREE CITY MOSUNNY   50  31  48 N7        30.27F
ROME           CLOUDY    46  32  58 W3        30.30R
WEST ATLANTA   CLOUDY    49  31  49 CALM      30.27F
GAINESVILLE    MOSUNNY   50  27  40 E9        30.27S
CARTERSVILLE   CLOUDY    44  35  70 CALM      30.31R


CITY           SKY/WX    TMP DP  RH WIND       PRES   REMARKS
DALTON*        CLOUDY    43  34  70 N8        30.30R
MARIETTA       CLOUDY    49  29  46 CALM      30.26S
CANTON*        CLOUDY    50  25  37 CALM      30.28R
$$

GAZ059>098-102>109-031700-
CENTRAL GEORGIA

CITY           SKY/WX    TMP DP  RH WIND       PRES   REMARKS
AUGUSTA-BUSH   CLOUDY    54  34  46 E10       30.28F
AUGUSTA-DANIEL CLOUDY    52  31  44 E12       30.28F
COLUMBUS       PTSUNNY   56  31  38 CALM      30.26F
MACON          PTSUNNY   55  32  41 N8        30.28R
ROBINS AFB     PTSUNNY   55  35  46 NE3       30.27S


CITY           SKY/WX    TMP DP  RH WIND       PRES   REMARKS
LAGRANGE*      CLOUDY    53  36  53 CALM      30.26F
SYLVANIA*      MOSUNNY  N/A N/A N/A E8        30.28F
MILLEDGEVILLE* PTSUNNY   54  39  58 CALM      30.28S
$$

GAZ099>101-110>166-031700-
SOUTH GEORGIA

CITY           SKY/WX    TMP DP  RH WIND       PRES   REMARKS
SAVANNAH       CLOUDY    56  35  45 E9        30.29R
VALDOSTA       CLOUDY    59  34  39 NE8       30.26R
ALMA           MOSUNNY   59  35  40 VRB7      30.26S
ST SIMONS      CLOUDY    60  46  59 N13G25    30.25S
FT STEWART     CLOUDY    60  34  37 E8        30.25R
ALBANY         MOSUNNY   60  35  39 E9        30.28F
HUNTER AFB     CLOUDY    60  42  52 NE7       30.25R
MOODY AFB      CLOUDY    59  33  37 NE8       30.25R
BRUNSWICK      CLOUDY    57  46  67 N5        30.27R


CITY           SKY/WX    TMP DP  RH WIND       PRES   REMARKS
BAINBRIDGE*    CLOUDY    59  34  38 NE10      30.26F
MOULTRIE*      MOSUNNY   59  34  38 NE3       30.26F
VIDALIA*       MOSUNNY   59  41  51 NE8       30.26F
WAYCROSS*      MOSUNNY   60  39  45 NE6       30.26R
DOUGLAS*       MOSUNNY   59  30  33 E10       30.27S
$$



USA.gov is the U.S. government's official web portal to all federal, state and local government web resources and services.